Content
SEND FEEDBACK

Daily
Averages
Monthly
Summary
United States of America

SHASTA RETREAT, CALIFORNIA


Home > North America > United States > California
Elevation: 2954 feet     Latitude: 41 13N     Longitude: 122 16W

WEATHER
 
SELECT A DAY
Number of Records: 235,184;   Date Range: 1/1/95 - 11/27/14
 
SHARE

PRINT THIS DATA

[ ← Previous Day ]
WEATHER ALMANAC - JULY 2, 2014
[ Next Day → ]
[ °C ]   °F
Weather ElementAverageHighLow
Temperature73.7 °F93 °F (1:56 pm)55.9 °F (5:56 am)
Dewpoint49.7 °F54 °F (8:56 am)45 °F (3:56 am)
Humidity46.6 %72 % (10:56 pm)22 % (11:56 am)
Barometer29.90 in29.95 in (10:56 pm)29.86 in (3:56 pm)
Wind Speed1.6 mph5.8 mph (9:56 am)
Wind Gust17.3 mph (5:56 pm)
Weather ElementAverage
Visibility10 mi
Wind DirectionNNE (18.3 °)

Weather ElementTotal
Precipitation---
Cooling Degree Days9.5 (Base 65)
Growing Degree Days24.5 (Base 50)
Averaged from 23 records on July 2, 2014
WEATHER CONDITIONS BREAKOUT
WIND DIRECTION BREAKOUT
WEATHER BY HOUR - JULY 2, 2014
[ °C ]   °F
Local TimeTemperatureDewpointHumidityBarometerVisibilityWind DirectionWind SpeedGust SpeedPrecipitationEventsConditions
1:56 AM60.1 °F46.9 °F62 %29.88 in10.0 miCalmClear
2:56 AM63.0 °F46.0 °F54 %29.87 in10.0 miCalmClear
3:56 AM57.9 °F45.0 °F62 %29.87 in10.0 miCalmClear
4:56 AM57.0 °F45.0 °F64 %29.88 in10.0 miCalmClear
5:56 AM55.9 °F45.0 °F67 %29.89 in10.0 miCalmClear
6:56 AM60.1 °F48.0 °F64 %29.91 in10.0 miCalmClear
7:56 AM70.0 °F53.1 °F55 %29.90 in10.0 miCalmClear
8:56 AM77.0 °F54.0 °F45 %29.91 in10.0 miVariable3.5 mphClear
9:56 AM81.0 °F52.0 °F36 %29.90 in10.0 miWNW (290°)5.8 mphClear
10:56 AM84.9 °F51.1 °F31 %29.90 in10.0 miCalmClear
11:56 AM89.1 °F46.0 °F22 %29.90 in10.0 miVariable3.5 mphClear
12:56 PM89.1 °F50.0 °F26 %29.89 in10.0 miSE (130°)4.6 mphClear
1:56 PM93.0 °F50.0 °F23 %29.88 in10.0 miVariable3.5 mphClear
2:56 PM91.9 °F51.1 °F25 %29.87 in10.0 miCalmClear
3:56 PM93.0 °F51.1 °F24 %29.86 in10.0 miCalmClear
4:56 PM89.1 °F48.0 °F24 %29.86 in10.0 miVariable4.6 mphClear
5:56 PM81.0 °F51.1 °F35 %29.88 in10.0 miVariable4.6 mph17.3 mphPartly Cloudy
6:56 PM77.0 °F50.0 °F39 %29.91 in10.0 miVariable5.8 mphClear
7:56 PM72.0 °F52.0 °F49 %29.94 in10.0 miCalmScattered Clouds
8:56 PM68.0 °F54.0 °F61 %29.93 in10.0 miCalmClear
9:56 PM64.9 °F53.1 °F65 %29.94 in10.0 miCalmClear
10:56 PM61.0 °F52.0 °F72 %29.95 in10.0 miCalmClear
11:56 PM60.1 °F48.9 °F67 %29.95 in10.0 miCalmClear
Hourly data recorded from KMHS, located miles away from Shasta Retreat, California







STORIES FROM OUR PARTNERS